| DS18B20 | SHTC3 | PZEM-004T | WiFi | ||||||||
|---|---|---|---|---|---|---|---|---|---|---|---|
| ID | Date d/m/Y & Time | data1 สูง | data2 ต่ำ | data3 นอก | temp pcb | hum pcb | Volt | Amp | Watt | rssi | Time |
| 14370 | 20/08/2026 14:14:49 | 32.8  | 31.6  | 33.9  | 33.8  | 63.3  | 235.8  | 0.04  | 4.6  | -79  | 14:14 |
| 14369 | 20/08/2026 14:10:05 | 32.8  | 31.6  | 33.7  | 33.8  | 63.3  | 235.2  | 0.04  | 4.6  | -80  | 14:10 |
| 14368 | 20/08/2026 14:05:22 | 32.8  | 31.6  | 33.7  | 33.7  | 63.4  | 235.1  | 0.04  | 4.6  | -81  | 14:05 |
| 14367 | 20/08/2026 14:00:39 | 32.8  | 31.6  | 33.5  | 33.8  | 63.4  | 233.6  | 0.04  | 4.6  | -79  | 14:00 |
| 14366 | 20/08/2026 13:55:52 | 32.8  | 31.6  | 33.4  | 33.6  | 63.3  | 233.2  | 0.04  | 4.6  | -77  | 13:55 |
| 14365 | 20/08/2026 13:51:09 | 32.8  | 31.5  | 33.4  | 33.6  | 63.3  | 233.3  | 0.04  | 4.6  | -80  | 13:51 |
| 14364 | 20/08/2026 13:46:25 | 32.7  | 31.5  | 33.4  | 33.5  | 63.4  | 233.0  | 0.04  | 4.6  | -80  | 13:46 |
| 14363 | 20/08/2026 13:41:42 | 32.6  | 31.4  | 33.5  | 33.4  | 63.2  | 232.6  | 0.04  | 4.6  | -79  | 13:41 |
| 14362 | 20/08/2026 13:36:58 | 32.6  | 31.4  | 33.4  | 33.8  | 63.3  | 232.1  | 0.04  | 4.6  | -80  | 13:36 |
| 14361 | 20/08/2026 13:32:15 | 32.6  | 31.4  | 33.4  | 33.3  | 63.3  | 233.2  | 0.04  | 4.6  | -81  | 13:32 |
| 14360 | 20/08/2026 13:27:32 | 32.6  | 31.4  | 33.2  | 33.5  | 63.4  | 232.4  | 0.04  | 4.6  | -79  | 13:27 |
| 14359 | 20/08/2026 13:22:48 | 32.6  | 31.3  | 33.2  | 33.5  | 63.2  | 233.4  | 0.04  | 4.6  | -78  | 13:22 |
| 14358 | 20/08/2026 13:18:05 | 32.5  | 31.3  | 33.0  | 33.6  | 63.2  | 233.2  | 0.04  | 4.6  | -78  | 13:18 |
| 14357 | 20/08/2026 13:13:21 | 32.5  | 31.2  | 32.9  | 33.3  | 63.0  | 232.4  | 0.04  | 4.6  | -80  | 13:13 |
| 14356 | 20/08/2026 13:08:38 | 32.5  | 31.2  | 32.9  | 33.3  | 62.8  | 232.4  | 0.04  | 4.6  | -78  | 13:08 |
| 14355 | 20/08/2026 13:03:55 | 32.5  | 31.2  | 33.0  | 33.3  | 63.4  | 233.0  | 0.04  | 4.6  | -79  | 13:03 |
| 14354 | 20/08/2026 12:59:11 | 32.4  | 31.2  | 32.9  | 33.2  | 63.4  | 233.5  | 0.04  | 4.6  | -80  | 12:59 |
| 14353 | 20/08/2026 12:54:28 | 32.4  | 31.1  | 32.9  | 33.3  | 63.4  | 233.0  | 0.04  | 4.6  | -78  | 12:54 |
| 14352 | 20/08/2026 12:49:43 | 32.4  | 31.1  | 33.0  | 33.3  | 63.3  | 233.3  | 0.04  | 4.6  | -80  | 12:49 |
| 14351 | 20/08/2026 12:45:00 | 32.4  | 31.1  | 33.1  | 33.3  | 63.4  | 232.9  | 0.04  | 4.6  | -79  | 12:45 |
| 14350 | 20/08/2026 12:40:16 | 32.4  | 31.0  | 33.1  | 33.1  | 63.4  | 233.6  | 0.04  | 4.6  | -77  | 12:40 |
| 14349 | 20/08/2026 12:35:33 | 32.4  | 31.0  | 33.2  | 33.2  | 63.2  | 233.6  | 0.04  | 4.6  | -79  | 12:35 |
| 14348 | 20/08/2026 12:30:50 | 32.4  | 30.9  | 33.2  | 33.1  | 63.3  | 233.8  | 0.04  | 4.6  | -78  | 12:30 |
| 14347 | 20/08/2026 12:26:06 | 32.4  | 30.9  | 33.1  | 33.1  | 63.2  | 234.0  | 0.04  | 4.6  | -77  | 12:26 |